QPF
0.00 0.00 0.00 0.00 0.00 0.00 0.00 0.00 0.00 0.00 0.00 0.00 0.00 0.00 0.00 0.00 0.00 0.00 0.00 0.00 0.00 0.00 0.01 0.01 0.01 0.01 0.01 0.01 0.01 0.00 0.01 0.00 0.00 0.00 0.00 0.01 0.00 0.00 0.01 0.01 0.01 0.01 0.01 0.02 0.02 0.02 0.01 0.01 0.02
0.00 0.00 0.00 0.00 0.00 0.00 0.00 0.00 0.00 0.00 0.00 0.00 0.00 0.00 0.00 0.00 0.00 0.00 0.00 0.00 0.00 0.01 0.01 0.01 0.01 0.01 0.01 0.01 0.01 0.01 0.01 0.01 0.01 0.01 0.00 0.00 0.00 0.01 0.01 0.00 0.00 0.00 0.00 0.00 0.01 0.02 0.01 0.01 0.01
0.00 0.00 0.00 0.00 0.00 0.00 0.00 0.00 0.00 0.00 0.00 0.00 0.00 0.00 0.00 0.00 0.00 0.00 0.00 0.00 0.00 0.01 0.01 0.01 0.01 0.01 0.01 0.01 0.01 0.01 0.01 0.01 0.01 0.01 0.01 0.01 0.01 0.01 0.01 0.01 0.00 0.00 0.00 0.00 0.00 0.01 0.01 0.01 0.01
0.00 0.00 0.00 0.00 0.00 0.00 0.00 0.00 0.00 0.00 0.00 0.00 0.00 0.00 0.00 0.00 0.00 0.00 0.00 0.00 0.00 0.01 0.01 0.01 0.02 0.01 0.01 0.01 0.01 0.01 0.01 0.01 0.01 0.01 0.01 0.01 0.00 0.00 0.00 0.00 0.00 0.00 0.00 0.00 0.00 0.00 0.01 0.00 0.00
0.00 0.00 0.00 0.00 0.00 0.00 0.00 0.00 0.00 0.00 0.00 0.00 0.00 0.00 0.00 0.00 0.00 0.00 0.00 0.00 0.00 0.01 0.01 0.01 0.02 0.02 0.02 0.02 0.02 0.01 0.01 0.01 0.01 0.01 0.01 0.01 0.00 0.00 0.00 0.00 0.00 0.00 0.00 0.00 0.00 0.00 0.00 0.00 0.00
0.00 0.00 0.00 0.00 0.00 0.00 0.00 0.00 0.00 0.00 0.00 0.00 0.00 0.00 0.00 0.00 0.00 0.00 0.00 0.00 0.00 0.01 0.01 0.01 0.02 0.02 0.02 0.02 0.02 0.01 0.01 0.01 0.01 0.01 0.01 0.00 0.00 0.00 0.00 0.00 0.00 0.00 0.00 0.00 0.00 0.00 0.00 0.00 0.00
0.00 0.00 0.00 0.00 0.00 0.00 0.00 0.00 0.00 0.00 0.00 0.00 0.00 0.00 0.00 0.00 0.00 0.00 0.00 0.00 0.00 0.00 0.01 0.01 0.01 0.01 0.01 0.02 0.01 0.01 0.01 0.01 0.01 0.01 0.01 0.00 0.00 0.00 0.00 0.00 0.00 0.00 0.00 0.00 0.00 0.00 0.00 0.00 0.00
0.00 0.00 0.00 0.00 0.00 0.00 0.00 0.00 0.00 0.00 0.00 0.00 0.00 0.00 0.00 0.00 0.00 0.00 0.00 0.00 0.00 0.00 0.01 0.01 0.01 0.01 0.01 0.01 0.01 0.01 0.01 0.01 0.01 0.01 0.01 0.00 0.00 0.00 0.00 0.00 0.00 0.00 0.00 0.00 0.00 0.00 0.00 0.00 0.00
0.00 0.00 0.00 0.00 0.00 0.00 0.00 0.00 0.00 0.00 0.00 0.00 0.00 0.00 0.00 0.00 0.00 0.00 0.01 0.01 0.01 0.01 0.01 0.01 0.01 0.01 0.01 0.01 0.01 0.01 0.01 0.01 0.01 0.01 0.01 0.01 0.00 0.00 0.00 0.00 0.00 0.00 0.00 0.00 0.00 0.00 0.00 0.00 0.00
0.00 0.00 0.00 0.00 0.00 0.00 0.00 0.00 0.00 0.00 0.00 0.00 0.00 0.00 0.00 0.00 0.00 0.00 0.00 0.00 0.00 0.00 0.00 0.00 0.00 0.01 0.01 0.01 0.01 0.01 0.01 0.01 0.01 0.01 0.01 0.01 0.00 0.00 0.00 0.00 0.00 0.00 0.00 0.00 0.00 0.00 0.00 0.00 0.00
0.00 0.00 0.00 0.00 0.00 0.00 0.00 0.00 0.00 0.00 0.00 0.00 0.00 0.00 0.00 0.00 0.00 0.00 0.00 0.00 0.00 0.00 0.00 0.00 0.00 0.01 0.01 0.01 0.01 0.00 0.01 0.01 0.01 0.01 0.01 0.01 0.01 0.01 0.00 0.00 0.00 0.00 0.00 0.00 0.00 0.00 0.00 0.00 0.00
0.00 0.00 0.00 0.00 0.00 0.00 0.00 0.00 0.00 0.00 0.00 0.00 0.00 0.00 0.00 0.00 0.00 0.00 0.00 0.00 0.00 0.00 0.00 0.00 0.00 0.00 0.00 0.01 0.01 0.00 0.01 0.01 0.01 0.01 0.01 0.01 0.01 0.01 0.01 0.00 0.00 0.00 0.00 0.00 0.00 0.00 0.00 0.00 0.00
0.00 0.00 0.00 0.00 0.00 0.00 0.00 0.00 0.00 0.00 0.00 0.00 0.00 0.00 0.00 0.00 0.00 0.00 0.00 0.00 0.00 0.00 0.00 0.00 0.00 0.00 0.00 0.01 0.01 0.00 0.00 0.01 0.01 0.01 0.01 0.01 0.01 0.01 0.01 0.01 0.00 0.00 0.00 0.00 0.00 0.00 0.00 0.00 0.00
0.00 0.00 0.00 0.00 0.00 0.00 0.00 0.00 0.00 0.00 0.00 0.00 0.00 0.00 0.00 0.00 0.00 0.00 0.00 0.00 0.00 0.00 0.00 0.01 0.00 0.01 0.00 0.01 0.01 0.01 0.00 0.00 0.01 0.01 0.01 0.01 0.01 0.01 0.01 0.01 0.01 0.00 0.00 0.00 0.00 0.00 0.00 0.00 0.00
0.00 0.00 0.00 0.00 0.00 0.00 0.00 0.00 0.00 0.00 0.00 0.00 0.00 0.00 0.00 0.00 0.00 0.00 0.00 0.00 0.00 0.00 0.01 0.01 0.01 0.01 0.01 0.01 0.01 0.01 0.01 0.01 0.00 0.00 0.01 0.01 0.01 0.01 0.01 0.01 0.01 0.01 0.00 0.01 0.01 0.00 0.00 0.00 0.00
0.00 0.00 0.00 0.00 0.00 0.00 0.00 0.00 0.00 0.00 0.00 0.00 0.00 0.00 0.00 0.00 0.00 0.00 0.00 0.00 0.00 0.00 0.01 0.01 0.01 0.00 0.00 0.01 0.01 0.01 0.01 0.01 0.00 0.00 0.00 0.00 0.01 0.01 0.01 0.02 0.02 0.01 0.01 0.01 0.01 0.01 0.00 0.00 0.00
0.00 0.00 0.00 0.00 0.00 0.00 0.00 0.00 0.00 0.00 0.00 0.00 0.00 0.00 0.00 0.00 0.00 0.00 0.00 0.00 0.00 0.00 0.00 0.01 0.00 0.00 0.01 0.01 0.01 0.01 0.01 0.01 0.00 0.00 0.00 0.00 0.00 0.01 0.01 0.02 0.02 0.01 0.01 0.01 0.01 0.01 0.00 0.00 0.01
0.00 0.00 0.00 0.00 0.00 0.00 0.00 0.00 0.00 0.00 0.00 0.00 0.00 0.00 0.00 0.00 0.00 0.00 0.00 0.00 0.00 0.00 0.01 0.01 0.01 0.01 0.01 0.01 0.01 0.01 0.01 0.00 0.00 0.00 0.00 0.01 0.00 0.00 0.01 0.01 0.01 0.01 0.01 0.01 0.01 0.02 0.01 0.01 0.01
0.00 0.00 0.00 0.00 0.00 0.00 0.00 0.00 0.00 0.00 0.00 0.00 0.00 0.00 0.00 0.00 0.00 0.00 0.00 0.00 0.00 0.00 0.00 0.00 0.00 0.00 0.00 0.00 0.00 0.00 0.00 0.00 0.00 0.00 0.00 0.01 0.01 0.01 0.01 0.01 0.01 0.00 0.00 0.00 0.00 0.01 0.03 0.03 0.02
0.00 0.00 0.00 0.00 0.00 0.00 0.00 0.00 0.00 0.00 0.00 0.00 0.00 0.00 0.00 0.00 0.00 0.00 0.00 0.00 0.00 0.00 0.00 0.00 0.00 0.00 0.00 0.00 0.01 0.01 0.01 0.01 0.00 0.00 0.00 0.01 0.01 0.01 0.01 0.01 0.00 0.00 0.00 0.00 0.00 0.00 0.01 0.03 0.04
0.01 0.00 0.00 0.00 0.00 0.00 0.00 0.00 0.00 0.00 0.00 0.00 0.00 0.00 0.00 0.00 0.00 0.00 0.00 0.00 0.00 0.00 0.00 0.00 0.00 0.00 0.00 0.00 0.01 0.01 0.01 0.00 0.00 0.00 0.00 0.00 0.00 0.00 0.01 0.01 0.01 0.00 0.00 0.00 0.00 0.00 0.00 0.00 0.01
0.01 0.00 0.00 0.00 0.00 0.00 0.00 0.00 0.00 0.00 0.00 0.00 0.00 0.00 0.00 0.00 0.00 0.00 0.00 0.00 0.00 0.00 0.00 0.00 0.00 0.00 0.00 0.01 0.00 0.00 0.00 0.00 0.00 0.00 0.00 0.00 0.00 0.01 0.01 0.01 0.01 0.00 0.00 0.00 0.00 0.00 0.00 0.00 0.00
0.01 0.01 0.00 0.01 0.01 0.01 0.00 0.00 0.00 0.00 0.00 0.00 0.00 0.00 0.00 0.00 0.00 0.00 0.00 0.00 0.00 0.00 0.00 0.00 0.01 0.01 0.01 0.01 0.00 0.00 0.00 0.00 0.00 0.00 0.00 0.00 0.01 0.01 0.01 0.00 0.00 0.00 0.00 0.00 0.00 0.00 0.00 0.00 0.00
0.02 0.01 0.02 0.02 0.02 0.02 0.00 0.00 0.00 0.00 0.00 0.00 0.00 0.00 0.00 0.00 0.00 0.00 0.00 0.00 0.00 0.00 0.00 0.00 0.01 0.01 0.00 0.00 0.00 0.00 0.00 0.00 0.00 0.00 0.00 0.00 0.00 0.00 0.00 0.00 0.00 0.00 0.00 0.00 0.00 0.00 0.00 0.00 0.00
0.03 0.04 0.06 0.06 0.05 0.02 0.00 0.00 0.00 0.00 0.00 0.00 0.00 0.00 0.00 0.00 0.00 0.00 0.00 0.00 0.00 0.00 0.00 0.00 0.00 0.00 0.00 0.00 0.00 0.00 0.00 0.00 0.00 0.00 0.00 0.00 0.00 0.00 0.00 0.00 0.00 0.00 0.00 0.00 0.00 0.00 0.00 0.00 0.00
0.03 0.04 0.04 0.03 0.02 0.00 0.00 0.00 0.00 0.00 0.00 0.00 0.00 0.00 0.00 0.00 0.00 0.00 0.00 0.00 0.00 0.00 0.00 0.00 0.00 0.00 0.00 0.00 0.00 0.00 0.00 0.00 0.00 0.00 0.00 0.00 0.00 0.01 0.01 0.01 0.00 0.00 0.00 0.00 0.00 0.00 0.00 0.00 0.00
0.02 0.03 0.02 0.02 0.01 0.00 0.00 0.00 0.00 0.00 0.00 0.00 0.00 0.00 0.00 0.00 0.00 0.00 0.00 0.00 0.00 0.00 0.00 0.00 0.00 0.00 0.00 0.00 0.00 0.00 0.00 0.00 0.00 0.00 0.00 0.00 0.00 0.01 0.01 0.01 0.01 0.00 0.00 0.00 0.00 0.00 0.00 0.00 0.00
0.02 0.02 0.03 0.04 0.02 0.01 0.00 0.00 0.00 0.00 0.00 0.00 0.00 0.00 0.00 0.00 0.00 0.00 0.00 0.00 0.00 0.00 0.00 0.00 0.00 0.00 0.00 0.00 0.00 0.00 0.00 0.00 0.00 0.00 0.00 0.00 0.00 0.00 0.00 0.00 0.00 0.00 0.00 0.00 0.00 0.00 0.00 0.00 0.00
0.03 0.04 0.05 0.04 0.03 0.01 0.00 0.00 0.00 0.00 0.00 0.00 0.00 0.00 0.00 0.00 0.00 0.00 0.00 0.00 0.00 0.00 0.00 0.00 0.00 0.00 0.00 0.00 0.00 0.00 0.00 0.00 0.00 0.01 0.01 0.00 0.00 0.00 0.00 0.00 0.00 0.00 0.00 0.00 0.00 0.00 0.00 0.00 0.00
0.04 0.04 0.04 0.04 0.03 0.01 0.01 0.00 0.00 0.00 0.00 0.00 0.00 0.00 0.00 0.00 0.00 0.00 0.00 0.00 0.00 0.00 0.00 0.00 0.00 0.00 0.00 0.00 0.00 0.00 0.00 0.00 0.01 0.01 0.01 0.01 0.01 0.00 0.00 0.00 0.00 0.00 0.00 0.00 0.00 0.00 0.00 0.00 0.00
MSLP
1012.92 1013.41 1014.04 1014.75 1015.48 1016.16 1016.75 1017.21 1017.55 1017.78 1017.97 1018.16 1018.41 1018.72 1019.09 1019.48 1019.85 1020.14 1020.31 1020.34 1020.25 1020.06 1019.83 1019.61 1019.45 1019.34 1019.30 1019.27 1019.24 1019.16 1019.02 1018.82 1018.58 1018.34 1018.14 1017.99 1017.91 1017.88 1017.87 1017.86 1017.80 1017.69 1017.50 1017.26 1016.98 1016.70 1016.45 1016.23 1016.05
1013.21 1013.77 1014.43 1015.14 1015.84 1016.46 1016.98 1017.38 1017.66 1017.87 1018.05 1018.25 1018.50 1018.81 1019.18 1019.56 1019.91 1020.18 1020.33 1020.36 1020.28 1020.12 1019.93 1019.75 1019.62 1019.54 1019.51 1019.49 1019.45 1019.37 1019.23 1019.05 1018.83 1018.62 1018.43 1018.30 1018.21 1018.16 1018.13 1018.08 1017.98 1017.82 1017.59 1017.32 1017.01 1016.71 1016.43 1016.19 1016.00
1013.60 1014.19 1014.84 1015.50 1016.11 1016.64 1017.06 1017.38 1017.62 1017.82 1018.02 1018.26 1018.56 1018.91 1019.31 1019.70 1020.04 1020.29 1020.43 1020.46 1020.39 1020.25 1020.09 1019.95 1019.84 1019.78 1019.75 1019.72 1019.68 1019.60 1019.47 1019.30 1019.10 1018.90 1018.73 1018.60 1018.50 1018.42 1018.34 1018.23 1018.08 1017.87 1017.60 1017.30 1016.98 1016.67 1016.39 1016.16 1015.98
1014.05 1014.64 1015.24 1015.80 1016.30 1016.70 1017.01 1017.26 1017.46 1017.67 1017.92 1018.23 1018.61 1019.03 1019.48 1019.89 1020.24 1020.49 1020.62 1020.65 1020.59 1020.47 1020.34 1020.22 1020.13 1020.07 1020.03 1020.00 1019.94 1019.85 1019.72 1019.56 1019.38 1019.20 1019.04 1018.89 1018.77 1018.65 1018.51 1018.35 1018.14 1017.88 1017.59 1017.27 1016.95 1016.65 1016.39 1016.17 1016.01
1014.50 1015.06 1015.58 1016.03 1016.39 1016.66 1016.87 1017.05 1017.24 1017.48 1017.80 1018.20 1018.67 1019.17 1019.67 1020.13 1020.49 1020.74 1020.88 1020.91 1020.86 1020.77 1020.66 1020.56 1020.49 1020.43 1020.38 1020.32 1020.24 1020.13 1020.00 1019.84 1019.67 1019.51 1019.35 1019.20 1019.05 1018.88 1018.70 1018.47 1018.21 1017.92 1017.60 1017.28 1016.97 1016.70 1016.46 1016.27 1016.13
1014.88 1015.38 1015.82 1016.15 1016.38 1016.54 1016.66 1016.80 1017.00 1017.29 1017.69 1018.19 1018.75 1019.33 1019.89 1020.37 1020.75 1021.01 1021.15 1021.19 1021.17 1021.11 1021.03 1020.96 1020.89 1020.83 1020.76 1020.68 1020.58 1020.45 1020.31 1020.15 1020.00 1019.84 1019.69 1019.53 1019.36 1019.16 1018.92 1018.65 1018.34 1018.02 1017.69 1017.37 1017.08 1016.83 1016.63 1016.46 1016.34
1015.13 1015.58 1015.92 1016.15 1016.28 1016.35 1016.43 1016.56 1016.78 1017.14 1017.63 1018.22 1018.86 1019.50 1020.10 1020.60 1020.98 1021.24 1021.38 1021.45 1021.46 1021.44 1021.40 1021.36 1021.32 1021.26 1021.18 1021.08 1020.95 1020.81 1020.66 1020.50 1020.36 1020.22 1020.07 1019.91 1019.72 1019.49 1019.22 1018.90 1018.56 1018.21 1017.87 1017.56 1017.29 1017.06 1016.88 1016.73 1016.60
1015.24 1015.62 1015.89 1016.04 1016.10 1016.13 1016.19 1016.34 1016.63 1017.06 1017.63 1018.29 1018.98 1019.66 1020.26 1020.76 1021.13 1021.38 1021.54 1021.63 1021.68 1021.71 1021.73 1021.74 1021.73 1021.68 1021.60 1021.49 1021.35 1021.19 1021.03 1020.89 1020.76 1020.63 1020.50 1020.34 1020.13 1019.88 1019.58 1019.23 1018.86 1018.49 1018.14 1017.83 1017.57 1017.36 1017.18 1017.02 1016.88
1015.22 1015.55 1015.75 1015.84 1015.87 1015.90 1015.98 1016.18 1016.54 1017.04 1017.68 1018.38 1019.10 1019.78 1020.36 1020.83 1021.18 1021.42 1021.58 1021.70 1021.81 1021.90 1021.99 1022.06 1022.09 1022.07 1022.01 1021.89 1021.74 1021.58 1021.43 1021.29 1021.17 1021.06 1020.93 1020.78 1020.57 1020.30 1019.97 1019.60 1019.21 1018.82 1018.47 1018.16 1017.90 1017.68 1017.49 1017.32 1017.13
1015.15 1015.41 1015.56 1015.62 1015.64 1015.68 1015.82 1016.09 1016.51 1017.08 1017.76 1018.49 1019.21 1019.86 1020.40 1020.82 1021.13 1021.35 1021.53 1021.68 1021.84 1022.01 1022.17 1022.30 1022.39 1022.42 1022.37 1022.26 1022.12 1021.96 1021.81 1021.67 1021.56 1021.46 1021.34 1021.19 1020.98 1020.70 1020.36 1019.98 1019.57 1019.18 1018.81 1018.50 1018.22 1017.99 1017.78 1017.56 1017.33
1015.08 1015.28 1015.38 1015.42 1015.44 1015.53 1015.72 1016.06 1016.55 1017.17 1017.88 1018.61 1019.29 1019.89 1020.38 1020.74 1021.01 1021.22 1021.41 1021.60 1021.82 1022.05 1022.29 1022.49 1022.63 1022.70 1022.68 1022.59 1022.46 1022.30 1022.14 1022.01 1021.90 1021.80 1021.69 1021.53 1021.32 1021.04 1020.70 1020.30 1019.90 1019.50 1019.13 1018.81 1018.52 1018.26 1018.01 1017.74 1017.45
1015.08 1015.22 1015.27 1015.30 1015.34 1015.46 1015.71 1016.11 1016.65 1017.31 1018.02 1018.73 1019.37 1019.92 1020.34 1020.65 1020.89 1021.08 1021.28 1021.51 1021.78 1022.08 1022.37 1022.64 1022.83 1022.94 1022.94 1022.87 1022.74 1022.57 1022.41 1022.27 1022.16 1022.05 1021.92 1021.77 1021.55 1021.28 1020.94 1020.56 1020.16 1019.76 1019.40 1019.06 1018.75 1018.46 1018.16 1017.84 1017.48
1015.18 1015.26 1015.28 1015.29 1015.35 1015.52 1015.82 1016.26 1016.84 1017.51 1018.21 1018.88 1019.48 1019.96 1020.34 1020.61 1020.82 1021.01 1021.22 1021.48 1021.79 1022.13 1022.47 1022.78 1023.01 1023.14 1023.16 1023.09 1022.96 1022.79 1022.61 1022.46 1022.32 1022.19 1022.05 1021.88 1021.67 1021.40 1021.08 1020.71 1020.34 1019.96 1019.59 1019.25 1018.92 1018.58 1018.23 1017.85 1017.43
1015.36 1015.40 1015.40 1015.42 1015.50 1015.70 1016.04 1016.52 1017.11 1017.78 1018.45 1019.09 1019.64 1020.08 1020.41 1020.66 1020.86 1021.06 1021.29 1021.56 1021.89 1022.26 1022.62 1022.94 1023.18 1023.31 1023.34 1023.27 1023.13 1022.95 1022.75 1022.57 1022.40 1022.24 1022.08 1021.90 1021.69 1021.43 1021.13 1020.79 1020.44 1020.08 1019.72 1019.37 1019.01 1018.64 1018.24 1017.79 1017.31
1015.60 1015.61 1015.61 1015.65 1015.78 1016.02 1016.39 1016.89 1017.48 1018.12 1018.76 1019.36 1019.87 1020.28 1020.60 1020.84 1021.04 1021.25 1021.49 1021.77 1022.10 1022.46 1022.81 1023.12 1023.35 1023.48 1023.50 1023.43 1023.28 1023.08 1022.86 1022.65 1022.45 1022.26 1022.07 1021.87 1021.65 1021.40 1021.12 1020.81 1020.49 1020.15 1019.80 1019.44 1019.06 1018.64 1018.19 1017.69 1017.15
1015.81 1015.84 1015.88 1015.97 1016.14 1016.43 1016.84 1017.34 1017.92 1018.53 1019.12 1019.67 1020.15 1020.55 1020.86 1021.12 1021.34 1021.57 1021.81 1022.10 1022.41 1022.73 1023.05 1023.32 1023.52 1023.63 1023.65 1023.57 1023.42 1023.22 1022.98 1022.74 1022.51 1022.28 1022.06 1021.84 1021.61 1021.36 1021.10 1020.81 1020.51 1020.18 1019.84 1019.47 1019.06 1018.61 1018.11 1017.57 1016.99
1015.96 1016.05 1016.16 1016.33 1016.58 1016.92 1017.34 1017.84 1018.38 1018.94 1019.48 1019.99 1020.44 1020.83 1021.16 1021.44 1021.70 1021.95 1022.21 1022.47 1022.75 1023.04 1023.30 1023.53 1023.69 1023.78 1023.79 1023.72 1023.57 1023.38 1023.14 1022.88 1022.62 1022.36 1022.10 1021.86 1021.61 1021.35 1021.09 1020.82 1020.52 1020.21 1019.86 1019.47 1019.04 1018.56 1018.04 1017.47 1016.87
1016.02 1016.20 1016.42 1016.70 1017.03 1017.42 1017.86 1018.33 1018.82 1019.30 1019.77 1020.22 1020.65 1021.04 1021.40 1021.73 1022.03 1022.32 1022.59 1022.85 1023.09 1023.33 1023.54 1023.71 1023.84 1023.92 1023.93 1023.87 1023.75 1023.57 1023.35 1023.09 1022.80 1022.51 1022.22 1021.94 1021.66 1021.39 1021.12 1020.84 1020.54 1020.21 1019.85 1019.45 1019.00 1018.50 1017.97 1017.40 1016.81
1016.00 1016.30 1016.66 1017.05 1017.47 1017.90 1018.32 1018.74 1019.13 1019.52 1019.90 1020.29 1020.68 1021.08 1021.48 1021.87 1022.24 1022.58 1022.88 1023.14 1023.37 1023.56 1023.72 1023.86 1023.96 1024.03 1024.06 1024.03 1023.95 1023.80 1023.60 1023.35 1023.05 1022.74 1022.42 1022.09 1021.78 1021.47 1021.17 1020.86 1020.54 1020.19 1019.82 1019.40 1018.94 1018.44 1017.92 1017.38 1016.83
1015.94 1016.38 1016.87 1017.37 1017.86 1018.29 1018.67 1018.99 1019.26 1019.51 1019.78 1020.09 1020.45 1020.87 1021.32 1021.79 1022.25 1022.66 1023.02 1023.31 1023.54 1023.72 1023.85 1023.96 1024.06 1024.13 1024.18 1024.20 1024.16 1024.05 1023.88 1023.64 1023.34 1023.01 1022.65 1022.28 1021.92 1021.57 1021.23 1020.88 1020.53 1020.15 1019.75 1019.31 1018.86 1018.38 1017.89 1017.41 1016.92
1015.91 1016.48 1017.08 1017.66 1018.16 1018.56 1018.84 1019.02 1019.13 1019.23 1019.37 1019.59 1019.92 1020.36 1020.89 1021.46 1022.03 1022.55 1023.00 1023.35 1023.61 1023.79 1023.93 1024.03 1024.13 1024.22 1024.30 1024.36 1024.36 1024.30 1024.15 1023.93 1023.62 1023.27 1022.87 1022.47 1022.06 1021.66 1021.27 1020.88 1020.48 1020.07 1019.64 1019.20 1018.75 1018.30 1017.87 1017.45 1017.06
1015.94 1016.62 1017.29 1017.89 1018.37 1018.67 1018.81 1018.81 1018.73 1018.65 1018.65 1018.79 1019.10 1019.58 1020.20 1020.90 1021.61 1022.27 1022.83 1023.27 1023.59 1023.81 1023.96 1024.08 1024.19 1024.31 1024.42 1024.50 1024.54 1024.51 1024.38 1024.17 1023.86 1023.48 1023.06 1022.61 1022.16 1021.72 1021.28 1020.85 1020.41 1019.96 1019.51 1019.06 1018.62 1018.21 1017.83 1017.50 1017.19
1016.06 1016.79 1017.49 1018.06 1018.45 1018.62 1018.57 1018.37 1018.09 1017.83 1017.71 1017.78 1018.09 1018.63 1019.35 1020.19 1021.06 1021.87 1022.57 1023.12 1023.52 1023.80 1023.99 1024.14 1024.27 1024.40 1024.53 1024.63 1024.69 1024.67 1024.55 1024.33 1024.01 1023.62 1023.17 1022.70 1022.22 1021.74 1021.27 1020.80 1020.33 1019.85 1019.38 1018.91 1018.48 1018.10 1017.78 1017.51 1017.28
1016.25 1016.99 1017.66 1018.16 1018.42 1018.41 1018.17 1017.76 1017.28 1016.88 1016.65 1016.68 1017.01 1017.62 1018.47 1019.46 1020.48 1021.45 1022.29 1022.96 1023.46 1023.80 1024.04 1024.21 1024.36 1024.50 1024.63 1024.74 1024.79 1024.77 1024.65 1024.42 1024.09 1023.68 1023.22 1022.74 1022.24 1021.74 1021.25 1020.76 1020.26 1019.76 1019.27 1018.79 1018.36 1017.99 1017.69 1017.46 1017.28
1016.46 1017.18 1017.78 1018.16 1018.26 1018.08 1017.65 1017.05 1016.42 1015.90 1015.61 1015.63 1016.01 1016.71 1017.68 1018.81 1019.99 1021.10 1022.07 1022.84 1023.42 1023.83 1024.11 1024.31 1024.46 1024.60 1024.73 1024.82 1024.86 1024.82 1024.68 1024.43 1024.09 1023.68 1023.22 1022.73 1022.24 1021.74 1021.25 1020.75 1020.24 1019.72 1019.21 1018.72 1018.26 1017.88 1017.58 1017.35 1017.17
1016.63 1017.30 1017.80 1018.06 1018.01 1017.66 1017.07 1016.34 1015.61 1015.04 1014.73 1014.79 1015.23 1016.03 1017.11 1018.37 1019.66 1020.88 1021.94 1022.79 1023.43 1023.89 1024.19 1024.41 1024.57 1024.70 1024.81 1024.88 1024.90 1024.83 1024.67 1024.41 1024.06 1023.65 1023.19 1022.72 1022.25 1021.77 1021.29 1020.80 1020.29 1019.76 1019.22 1018.70 1018.22 1017.79 1017.45 1017.18 1016.97
1016.73 1017.33 1017.74 1017.86 1017.68 1017.21 1016.51 1015.71 1014.95 1014.38 1014.11 1014.24 1014.76 1015.66 1016.83 1018.17 1019.53 1020.81 1021.92 1022.81 1023.48 1023.95 1024.28 1024.50 1024.66 1024.78 1024.88 1024.93 1024.91 1024.82 1024.64 1024.36 1024.01 1023.61 1023.17 1022.73 1022.28 1021.84 1021.38 1020.91 1020.40 1019.87 1019.31 1018.75 1018.22 1017.74 1017.33 1016.99 1016.70
1016.74 1017.27 1017.57 1017.59 1017.31 1016.75 1016.01 1015.20 1014.47 1013.96 1013.79 1014.01 1014.63 1015.60 1016.84 1018.21 1019.59 1020.88 1021.98 1022.87 1023.53 1024.01 1024.33 1024.56 1024.72 1024.84 1024.92 1024.96 1024.93 1024.81 1024.61 1024.33 1023.98 1023.58 1023.17 1022.76 1022.35 1021.94 1021.51 1021.06 1020.57 1020.03 1019.45 1018.86 1018.28 1017.73 1017.24 1016.80 1016.42
1016.66 1017.12 1017.34 1017.27 1016.91 1016.32 1015.58 1014.82 1014.17 1013.77 1013.72 1014.05 1014.76 1015.80 1017.06 1018.43 1019.78 1021.02 1022.08 1022.93 1023.56 1024.02 1024.34 1024.58 1024.74 1024.87 1024.96 1024.99 1024.95 1024.82 1024.61 1024.32 1023.97 1023.59 1023.19 1022.81 1022.43 1022.05 1021.66 1021.23 1020.74 1020.21 1019.62 1018.99 1018.36 1017.75 1017.18 1016.66 1016.18
1016.53 1016.92 1017.05 1016.90 1016.50 1015.90 1015.19 1014.51 1013.98 1013.72 1013.80 1014.25 1015.04 1016.12 1017.37 1018.71 1020.00 1021.17 1022.15 1022.94 1023.54 1023.98 1024.31 1024.55 1024.74 1024.89 1024.99 1025.03 1024.99 1024.86 1024.64 1024.34 1023.99 1023.61 1023.23 1022.86 1022.50 1022.14 1021.77 1021.36 1020.90 1020.36 1019.77 1019.13 1018.46 1017.81 1017.18 1016.58 1016.02
Thickness
5698 5699 5699 5693 5679 5667 5675 5692 5703 5710 5714 5721 5724 5726 5725 5723 5722 5724 5732 5739 5740 5739 5738 5737 5736 5735 5734 5733 5733 5732 5731 5731 5730 5730 5730 5729 5729 5729 5728 5728 5728 5727 5727 5727 5727 5727 5727 5726 5726
5691 5692 5687 5678 5665 5659 5673 5691 5699 5710 5717 5717 5719 5721 5722 5722 5725 5726 5729 5733 5735 5735 5734 5733 5732 5731 5730 5729 5729 5728 5727 5727 5726 5725 5725 5725 5724 5724 5724 5723 5723 5723 5723 5722 5722 5722 5722 5722 5721
5684 5683 5673 5664 5658 5663 5683 5697 5700 5708 5712 5714 5712 5714 5717 5718 5721 5723 5727 5729 5730 5729 5729 5728 5727 5727 5726 5725 5724 5724 5723 5722 5722 5721 5720 5720 5719 5719 5719 5718 5718 5718 5718 5718 5717 5717 5717 5717 5716
5674 5668 5661 5656 5661 5672 5686 5699 5700 5702 5706 5709 5708 5707 5711 5716 5718 5721 5723 5724 5724 5723 5723 5723 5722 5722 5721 5720 5719 5719 5718 5718 5717 5716 5715 5715 5714 5714 5713 5713 5713 5713 5712 5712 5712 5712 5712 5711 5711
5663 5655 5650 5649 5660 5674 5683 5691 5697 5698 5701 5703 5703 5702 5705 5710 5714 5716 5717 5718 5717 5717 5717 5717 5717 5716 5716 5715 5714 5713 5713 5712 5711 5711 5710 5709 5709 5708 5708 5707 5707 5707 5707 5707 5707 5707 5706 5706 5706
5647 5645 5639 5644 5658 5672 5681 5689 5692 5693 5695 5695 5696 5697 5700 5703 5707 5708 5710 5710 5711 5711 5711 5711 5711 5710 5710 5709 5709 5708 5707 5707 5706 5705 5704 5703 5703 5702 5702 5702 5702 5702 5702 5701 5701 5701 5701 5701 5700
5638 5636 5637 5645 5654 5666 5680 5685 5686 5687 5689 5690 5693 5691 5694 5697 5700 5702 5702 5703 5703 5704 5704 5704 5704 5704 5703 5703 5702 5702 5701 5701 5700 5699 5698 5697 5697 5696 5696 5696 5696 5696 5696 5695 5695 5695 5695 5694 5694
5636 5632 5634 5640 5649 5663 5678 5681 5685 5685 5686 5688 5689 5688 5690 5694 5694 5694 5694 5694 5695 5696 5697 5697 5697 5697 5697 5696 5696 5695 5695 5694 5693 5692 5691 5690 5689 5689 5689 5689 5689 5689 5689 5689 5688 5688 5688 5687 5687
5630 5621 5627 5639 5648 5662 5672 5674 5678 5681 5679 5681 5684 5688 5693 5691 5688 5687 5686 5685 5687 5688 5689 5690 5691 5690 5690 5690 5689 5688 5688 5687 5686 5685 5684 5683 5683 5682 5682 5682 5682 5682 5682 5682 5681 5681 5681 5680 5680
5618 5616 5631 5644 5651 5659 5664 5667 5669 5671 5671 5673 5676 5680 5682 5682 5682 5682 5681 5680 5680 5680 5681 5683 5683 5684 5683 5683 5682 5681 5680 5680 5679 5678 5677 5677 5676 5675 5675 5674 5674 5674 5674 5674 5674 5674 5673 5673 5673
5614 5619 5632 5640 5648 5653 5656 5658 5663 5663 5664 5670 5674 5674 5673 5674 5676 5676 5676 5676 5676 5675 5675 5676 5677 5677 5677 5676 5675 5674 5673 5673 5672 5671 5671 5670 5670 5669 5668 5667 5667 5667 5666 5666 5666 5666 5666 5666 5666
5608 5617 5625 5634 5641 5644 5647 5650 5653 5657 5666 5672 5674 5672 5670 5670 5672 5673 5672 5670 5669 5669 5669 5669 5670 5670 5670 5669 5668 5667 5667 5666 5665 5664 5664 5664 5663 5662 5661 5661 5660 5659 5659 5659 5659 5659 5659 5659 5659
5602 5611 5618 5624 5628 5632 5637 5640 5644 5651 5659 5663 5664 5663 5664 5665 5666 5666 5666 5664 5663 5663 5663 5663 5664 5663 5663 5662 5661 5660 5660 5659 5658 5658 5658 5657 5656 5655 5654 5654 5653 5652 5652 5652 5652 5652 5652 5652 5652
5598 5602 5608 5614 5618 5623 5626 5631 5635 5646 5649 5652 5654 5655 5656 5659 5659 5658 5658 5658 5658 5658 5657 5657 5657 5657 5657 5656 5655 5654 5653 5652 5652 5651 5651 5650 5650 5649 5648 5647 5646 5646 5645 5645 5645 5645 5644 5644 5644
5589 5590 5596 5603 5608 5614 5617 5619 5629 5639 5639 5641 5644 5646 5649 5651 5652 5654 5656 5655 5654 5653 5652 5652 5651 5650 5650 5649 5648 5647 5647 5646 5645 5644 5644 5643 5643 5642 5641 5640 5639 5638 5638 5638 5638 5637 5637 5636 5636
5575 5576 5580 5595 5599 5604 5604 5610 5629 5628 5630 5632 5634 5636 5640 5644 5647 5649 5649 5649 5648 5647 5646 5646 5646 5644 5644 5643 5642 5641 5640 5639 5638 5637 5637 5637 5636 5635 5634 5633 5632 5631 5631 5631 5630 5629 5628 5627 5626
5558 5560 5571 5584 5591 5594 5595 5604 5619 5619 5621 5624 5626 5629 5632 5636 5640 5642 5644 5644 5643 5642 5641 5640 5640 5639 5638 5637 5635 5634 5633 5632 5631 5630 5630 5630 5629 5628 5627 5626 5624 5624 5623 5623 5622 5620 5619 5618 5618
5548 5552 5563 5571 5581 5582 5585 5595 5606 5610 5612 5615 5618 5621 5625 5631 5637 5637 5638 5638 5637 5636 5635 5635 5634 5632 5631 5629 5627 5626 5625 5624 5624 5623 5623 5622 5622 5621 5620 5618 5617 5616 5615 5614 5613 5611 5610 5609 5608
5545 5548 5554 5563 5571 5572 5575 5585 5596 5601 5602 5605 5608 5613 5619 5626 5631 5631 5631 5631 5630 5630 5629 5629 5627 5626 5625 5623 5620 5618 5617 5617 5616 5616 5615 5615 5614 5613 5612 5611 5610 5608 5607 5605 5604 5603 5601 5600 5599
5535 5537 5543 5552 5560 5563 5564 5572 5584 5592 5597 5602 5606 5610 5615 5619 5621 5624 5625 5625 5626 5626 5625 5623 5623 5621 5620 5619 5616 5614 5611 5609 5609 5608 5608 5607 5606 5606 5605 5604 5602 5600 5599 5597 5596 5594 5592 5590 5588
5524 5527 5534 5539 5545 5549 5553 5564 5577 5587 5591 5598 5602 5608 5612 5616 5618 5619 5620 5621 5621 5621 5621 5621 5618 5616 5615 5612 5609 5606 5603 5601 5600 5600 5600 5600 5599 5598 5597 5596 5594 5593 5591 5589 5587 5586 5584 5580 5578
5514 5524 5527 5530 5527 5525 5538 5538 5566 5577 5583 5591 5596 5599 5605 5610 5612 5614 5615 5615 5616 5617 5616 5614 5612 5610 5608 5606 5604 5602 5599 5596 5595 5593 5592 5592 5591 5591 5589 5588 5587 5585 5583 5581 5579 5577 5575 5572 5569
5508 5515 5516 5517 5513 5510 5520 5522 5553 5565 5576 5588 5592 5594 5599 5602 5605 5608 5611 5612 5611 5610 5609 5608 5605 5603 5601 5600 5598 5596 5593 5590 5587 5586 5585 5584 5583 5583 5582 5580 5578 5577 5575 5573 5571 5569 5566 5563 5560
5498 5499 5497 5492 5493 5496 5512 5513 5539 5554 5576 5585 5589 5589 5592 5595 5597 5601 5603 5603 5603 5601 5600 5599 5598 5596 5595 5593 5591 5590 5587 5583 5580 5578 5577 5576 5575 5574 5573 5572 5570 5568 5567 5565 5563 5561 5558 5555 5552
5488 5483 5477 5477 5473 5487 5506 5510 5535 5559 5569 5575 5579 5581 5583 5586 5588 5592 5594 5595 5595 5594 5593 5592 5591 5589 5587 5586 5584 5583 5580 5577 5575 5573 5571 5568 5567 5566 5565 5564 5562 5560 5559 5557 5555 5552 5550 5547 5543
5476 5480 5475 5472 5476 5484 5494 5502 5531 5550 5557 5562 5567 5570 5573 5576 5579 5583 5587 5588 5588 5587 5586 5585 5584 5582 5580 5578 5577 5575 5572 5570 5568 5566 5564 5562 5560 5559 5558 5556 5554 5552 5550 5548 5545 5543 5540 5538 5534
5470 5471 5478 5470 5467 5472 5485 5497 5520 5542 5546 5551 5554 5558 5562 5565 5570 5574 5577 5579 5579 5579 5579 5579 5577 5575 5573 5571 5569 5566 5564 5562 5560 5558 5556 5554 5552 5551 5549 5547 5545 5543 5541 5538 5536 5534 5531 5528 5525
5467 5467 5464 5464 5467 5477 5486 5495 5515 5532 5537 5540 5543 5546 5550 5554 5559 5562 5565 5567 5569 5570 5570 5569 5569 5567 5565 5563 5561 5559 5556 5554 5552 5549 5547 5545 5544 5542 5539 5537 5535 5533 5531 5529 5527 5524 5521 5518 5515
5450 5456 5461 5461 5465 5470 5477 5498 5515 5520 5525 5527 5530 5533 5537 5542 5546 5550 5553 5555 5558 5558 5559 5559 5558 5557 5555 5553 5552 5550 5547 5545 5543 5540 5538 5536 5534 5532 5530 5528 5525 5524 5522 5520 5517 5514 5512 5509 5506
5439 5447 5451 5456 5453 5452 5462 5484 5504 5505 5509 5514 5516 5521 5525 5529 5533 5536 5540 5543 5545 5547 5548 5548 5548 5547 5546 5544 5542 5540 5537 5535 5533 5530 5528 5526 5524 5522 5520 5518 5516 5514 5512 5510 5508 5505 5502 5499 5496